Location: Allos
(44.2333°N, 6.6333°E)
Time: 19:05:47
(UTC+00:00)

Cosmos 1238 Rocket - Visible Passes

Search period start: 13 April 2021 00:00
Search period end: 23 April 2021 00:00
Orbit: 375 x 1022 km, 83.0° (Epoch: 13 April)

Date Brightness Start Highest point End Pass type
(mag) Time Alt. Az. Time Alt. Az. Time Alt. Az.
13 Apr 5.0 01:02:58 10° N 01:08:28 38° ENE 01:09:56 34° ESE visible
13 Apr 4.5 02:42:28 10° NNW 02:47:54 38° W 02:48:44 36° WSW visible
14 Apr 6.1 00:07:12 10° NNE 00:10:57 17° ENE 00:13:02 14° E visible
14 Apr 3.9 01:45:01 10° N 01:51:03 90° WSW 01:51:51 71° S visible
14 Apr 5.5 03:26:26 10° NW 03:29:52 16° W 03:30:38 15° W visible
15 Apr 5.0 00:48:15 10° N 00:53:54 39° ENE 00:54:58 36° E visible
15 Apr 4.5 02:27:46 10° NNW 02:33:20 38° W 02:33:46 38° W visible
15 Apr 6.1 23:52:26 10° NNE 23:56:21 17° ENE 23:58:07 15° E visible
16 Apr 3.9 01:30:19 10° N 01:36:29 90° W 01:36:55 80° S visible
16 Apr 5.5 03:11:41 10° NW 03:15:15 16° W 03:15:43 16° W visible
17 Apr 5.0 00:33:31 10° N 00:39:18 39° ENE 00:40:05 38° E visible
17 Apr 4.6 02:13:03 10° NNW 02:18:45 39° W 02:18:53 39° W visible
17 Apr 6.0 23:37:40 10° NNE 23:41:42 17° ENE 23:43:16 16° E visible
18 Apr 3.9 01:15:36 10° N 01:21:53 90° WNW 01:22:04 86° S visible
18 Apr 5.6 02:56:56 10° NW 03:00:37 16° W 03:00:51 16° W visible
19 Apr 4.9 00:18:47 10° N 00:24:41 40° ENE 00:25:15 39° E visible
19 Apr 4.6 01:58:19 10° NNW 02:04:03 39° W 02:04:03 39° W visible
19 Apr 6.0 23:22:53 10° NNE 23:27:03 18° ENE 23:28:27 17° E visible
20 Apr 3.9 01:00:52 10° N 01:07:15 89° NW 01:07:15 89° NW visible
20 Apr 5.6 02:42:11 10° NW 02:45:57 16° W 02:46:03 16° W visible
21 Apr 4.9 00:04:02 10° N 00:10:03 40° ENE 00:10:28 40° E visible
21 Apr 4.7 01:43:36 10° NNW 01:49:16 39° W 01:49:16 39° W visible
21 Apr 6.0 23:08:07 10° NNE 23:12:22 18° ENE 23:13:40 17° E visible
22 Apr 4.0 00:46:08 10° N 00:52:29 86° NNW 00:52:29 86° NNW visible
22 Apr 5.7 02:27:26 10° NW 02:31:16 17° W 02:31:16 17° W visible
